Regional Weather Roundup
Issued by NWS

Home | Current Version | Previous Version | Graphics & Text | Print | Product List | Glossary On
Versions: 1 2 3 4 5 6 7 8 9 10 11 12 13 14 15 16 17 18 19 20 21 22 23 24 25 26 27 28 29 30 31 32 33 34 35 36 37 38 39 40 41 42 43 44 45 46 47 48 49 50
000
ASUS43 KTOP 202159
RWRKS

WEATHER ROUNDUP FOR KANSAS
NATIONAL WEATHER SERVICE GOODLAND KS
500 PM CDT SUN APR 20 2014

NOTE:  "FAIR" INDICATES FEW OR NO CLOUDS BELOW 12,000 FEET WITH NO
SIGNIFICANT WEATHER AND/OR OBSTRUCTIONS TO VISIBILITY.

KSZ001>006-013>018-027>032-041>047-202300-
NORTHWEST KANSAS

CITY           SKY/WX    TMP DP  RH WIND       PRES   REMARKS
GOODLAND       PTSUNNY   75  45  34 NE5       29.93F
HAYS           MOSUNNY   75  54  46 SE23      29.91F
HILL CITY      CLOUDY    76  50  40 S10G20    29.90S
RUSSELL        PTSUNNY   75  54  47 SE21G29   29.92F
$$

KSZ061>065-074>080-084>089-202300-
SOUTHWEST KANSAS

CITY           SKY/WX    TMP DP  RH WIND       PRES   REMARKS
DODGE CITY     MOSUNNY   78  52  40 S25G35    29.90F
ELKHART          N/A     64  51  62 W6          N/A
GARDEN CITY    PTSUNNY   79  44  28 S16G26    29.88F
GREAT BEND     PTSUNNY   73  52  46 S21       29.93S
LIBERAL        MOSUNNY   77  46  33 S20G29    29.92S
$$

KSZ066>073-081>083-090>101-202300-
SOUTHEAST KANSAS

CITY           SKY/WX    TMP DP  RH WIND       PRES   REMARKS
CHANUTE        CLOUDY    72  54  53 S12G21    30.05F
COFFEYVILLE    CLOUDY    76  54  46 S14       30.05F
HUTCHINSON     CLOUDY    69  59  70 SE17      29.98F
NEWTON         CLOUDY    64  55  72 S12       30.05F
PARSONS        CLOUDY    74  53  48 S12       30.06F
WICHITA INTL   CLOUDY    73  58  59 S15       30.00F
WICHITA JABRA  CLOUDY    70  59  68 SE12      30.01F
WINFIELD       CLOUDY    74  57  55 S15G22    30.01F
$$

KSZ007>012-019>026-033>040-048>060-102>105-202300-
NORTHEAST KANSAS

CITY           SKY/WX    TMP DP  RH WIND       PRES   REMARKS
CONCORDIA      CLOUDY    74  53  48 S20G28    29.96F
EMPORIA        CLOUDY    67  59  75 S9        30.03F
LAWRENCE       CLOUDY    77  54  44 S15       30.01F
MANHATTAN      CLOUDY    70  56  61 S15G23    30.00S
OLATHE IND     CLOUDY    75  53  46 SW17      30.03F
OLATHE EXE     CLOUDY    73  52  47 S17       30.02F
SALINA         CLOUDY    70  55  59 SE14      29.98F
TOPEKA BILLARD CLOUDY    77  53  43 SW17      30.00F
TOPEKA FORBES  CLOUDY    74  53  48 S16G24    30.00F
$$



USA.gov is the U.S. government's official web portal to all federal, state and local government web resources and services.